Regional Weather Roundup
Issued by NWS

Home | Current Version | Previous Version | Graphics & Text | Print | Product List | Glossary On
Versions: 1 2 3 4 5 6 7 8 9 10 11 12 13 14 15 16 17 18 19 20 21 22 23 24 25 26 27 28 29 30 31 32 33 34 35 36 37 38 39 40 41 42 43 44 45 46 47 48 49 50
000
ASUS43 KLOT 300413
RWRIL

ILLINOIS REGIONAL WEATHER ROUNDUP
NATIONAL WEATHER SERVICE CHICAGO/ROMEOVILLE IL
1100 PM CDT FRI MAY 29 2015

NOTE: "FAIR" INDICATES FEW OR NO CLOUDS BELOW 12,000 FEET WITH NO
SIGNIFICANT WEATHER AND/OR OBSTRUCTIONS TO VISIBILITY.

* THESE STATIONS ARE NOT UNDER NWS QUALITY CONTROL. THEY ALSO MAY NOT
  REPORT WEATHER SUCH AS PRECIPITATION OR FOG.

ILZ001-002-007-009-015-016-024-300500-
NORTHWEST ILLINOIS

CITY           SKY/WX    TMP DP  RH WIND       PRES   REMARKS
MOLINE         CLOUDY    70  64  81 W7        29.95S
STERLING*      CLOUDY    70  64  83 S5        29.95S
SAVANNA*       CLOUDY    71  65  83 S5        29.93S
$$

ILZ003-004-008-010-011-017-018-300500-
NORTH CENTRAL ILLINOIS

CITY           SKY/WX    TMP DP  RH WIND       PRES   REMARKS
ROCKFORD       CLOUDY    71  64  78 SW6       29.94S
FREEPORT*      CLOUDY    68  65  89 SW7       29.95S
ROCHELLE*      CLOUDY    70  63  79 W8        29.95S
DE KALB*       CLOUDY    71  63  75 SW9       29.96S
PERU*          MOCLDY    72  66  81 SW9       29.97S
$$

ILZ005-006-012>014-019>023-300500-
NORTHEAST ILLINOIS

CITY           SKY/WX    TMP DP  RH WIND       PRES   REMARKS
CHICAGO-OHARE  MOCLDY    74  66  76 SW8       29.93R
CHICAGO-MIDWAY MOCLDY    75  66  73 SW14G21   29.94R
AURORA         MOCLDY    73  63  70 S10       29.95R
LANSING*       MOCLDY    70  63  79 SW8       29.96S
JOLIET*        MOCLDY    72  67  83 SW5       29.96S
WAUKEGAN       MOCLDY    70  63  78 SW5       29.91S
DUPAGE AIRPORT MOCLDY    73  63  70 SW7       29.94R
KANKAKEE*      CLOUDY    69  66  90 S8        29.97F
WHEELING       PTCLDY    70  67  90 CALM      29.94R
MORRIS*        MOCLDY    70  65  84 SW8       29.94S
ROMEOVILLE*    MOCLDY    71  64  79 SW14      29.96S
NORTHERLY ISL    N/A     74  64  71 S9          N/A
$$

LMZ740>746-300500-
SOUTHERN LAKE MICHIGAN

STATION/POSITION SKY/WX   TEMP    WIND        PRES    VSBY  WAVE
                          AIR SEA DIR/SP/G                  HT/PER
                          (F)     (DEG/KT/KT) (MB)    (MI)  (FT/S)
SOUTHERN BUOY              48 38  210/  8/ 10 1013.4F         0
HARRISON CRIB              74     200/ 17/ 18   N/A
BURNHAM HARBOR             74     210/  8/ 12   N/A
CALUMET HARBOR             73     180/  6/  9   N/A
BURNS HARBOR               72     190/ 11/ 14 1014.9R
MICHIGAN CITY              73     170/ 13/ 16   N/A
MICHIGAN CITY 6N           65 56  200/  6/  8   N/A           1/ 2
ST. JOSEPH                 64 58  220/  8/ 10   N/A           1/ 3
$$

ILZ025>027-034>036-040-047-049-050-058-095>099-300500-
WEST-CENTRAL ILLINOIS

CITY           SKY/WX    TMP DP  RH WIND       PRES   REMARKS
QUINCY         LGT RAIN  69  66  90 CALM      29.99S
GALESBURG*     CLOUDY    69  65  84 SW7       29.98S
MACOMB*        CLOUDY    70  66  85 SW6       30.01S
JACKSONVILLE*  CLOUDY    74  67  79 CALM      29.98F
PITTSFIELD*    CLOUDY    70  66  87 W6        30.00F
$$

ILZ028>032-037-038-041>044-048-051>054-059>061-300500-
CENTRAL ILLINOIS

CITY           SKY/WX    TMP DP  RH WIND       PRES   REMARKS
PONTIAC        MOCLDY    70  67  89 S7        29.98S
BLOOMINGTON    MOCLDY    69  67  93 S9        30.00S
DECATUR        CLOUDY    71  66  84 S10       30.00F
PEORIA         CLOUDY    72  67  84 S8        29.98S
LACON*         MOCLDY    71  66  85 SW5       29.96S
LINCOLN*       CLOUDY    71  68  90 S6        29.97S
SPRINGFIELD    CLOUDY    72  69  90 S9        30.00R
TAYLORVILLE    CLOUDY    68  64  88 S7        30.00F
$$

ILZ033-039-045-046-055>057-062-063-300500-
EAST-CENTRAL ILLINOIS

CITY           SKY/WX    TMP DP  RH WIND       PRES   REMARKS
CHAMPAIGN      CLOUDY    71  66  84 SW10      30.00F
DANVILLE*      CLOUDY    72  64  76 SW10      29.98S
RANTOUL*       CLOUDY    71  69  95 CALM      30.00S
MATTOON        LGT RAIN  68  66  93 S9        30.01F
PARIS*         CLOUDY    73  63  72 S7        30.03S
$$

ILZ079-100>102-300500-
SOUTHWEST ILLINOIS

CITY           SKY/WX    TMP DP  RH WIND       PRES   REMARKS
ALTON          CLOUDY    70  70 100 SE6       30.00F
BELLEVILLE     CLOUDY    69  69 100 SE8       29.99F
CAHOKIA*       CLOUDY    71  66  84 SE8       29.99F
SPARTA*        CLOUDY    67  66  97 E8        30.02F
$$

ILZ064>066-069>071-074>076-080>082-084>086-088>090-092>094-300500-
SOUTH-CENTRAL ILLINOIS

CITY           SKY/WX    TMP DP  RH WIND       PRES   REMARKS
CARBONDALE     LGT RAIN  69  67  93 NE10      30.02F
CAIRO*         MOCLDY    76  69  80 SE6       30.01F
EFFINGHAM*     LGT RAIN  68  64  88 CALM      30.02F
MARION         LGT RAIN  72  68  88 N3        30.03F
MT. VERNON     MOCLDY    66  63  88 CALM      30.05S
CENTRALIA*     RAIN      67  65  94 SW10      30.04S
SALEM*         MOCLDY    69  67  90 S3        30.03F
METROPOLIS*    MOCLDY    76  69  80 CALM      30.03S
$$

ILZ067-068-072-073-078-083-087-091-300500-
SOUTHEAST ILLINOIS

CITY           SKY/WX    TMP DP  RH WIND       PRES   REMARKS
LAWRENCEVILLE  PTCLDY    70  64  81 S3        30.03F
FLORA*         PTCLDY    67  66  95 S3        30.03F
FAIRFIELD*     PTCLDY    68  65  90 CALM      30.03F
HARRISBURG*    PTCLDY    72  65  78 NE3       30.05F
ROBINSON*      PTCLDY    71  64  79 S3        30.03F
CARMI*         PTCLDY    70  61  73 CALM      30.04F
$$

ABBREVIATIONS USED IN REMARKS
   TC - TEMPERATURE IN CELSIUS
  WCI - WIND CHILL INDEX
   HX - HEAT INDEX
  VSB - VISIBILITY
$$




USA.gov is the U.S. government's official web portal to all federal, state and local government web resources and services.